Location: Newark
(52.2090°N, 4.1550°W)
Time: 07:06:39
(UTC+00:00)

Explorer 7 - Pass Details

Date: 28 September 2019
Orbit: 485 x 680 km, 50.3° (Epoch: 15 October)

Event Time Altitude Azimuth Distance (km) Brightness Sun altitude
Rises 19:50:51 0° 215° (SW) 2,696 10.5 -17.3°
Reaches altitude 10° 19:53:16 10° 202° (SSW) 1,842 9.5 -17.6°
Enters shadow 19:56:01 24° 164° (SSE) 1,202 8.2 -18.0°
Maximum altitude 19:56:46 26° 146° (SSE) 1,169 - -18.1°
Drops below altitude 10° 20:00:27 10° 90° (E) 1,954 - -18.7°
Sets 20:03:07 0° 78° (ENE) 2,899 - -19.0°
